| time (UTC) | temp C | wind direction | speed KPH | gust KPH | rain 1hr cm | rain 24hr cm | rain mn cm | humidity % | barometer mb |
| 20260510175206 | 23 | 341 | 8.0 | 19.3 | 0.00 | 0.05 | 0.00 | 55 | 1012.3 |
| 20260510173706 | 23 | 317 | 4.8 | 25.7 | 0.00 | 0.08 | 0.00 | 53 | 1012.3 |
| 20260510172206 | 24 | 256 | 6.4 | 16.1 | 0.00 | 0.08 | 0.00 | 58 | 1012.3 |
| 20260510170706 | 24 | 276 | 1.6 | 9.7 | 0.00 | 0.08 | 0.00 | 55 | 1012.3 |
| 20260510165206 | 23 | 220 | 3.2 | 16.1 | 0.00 | 0.08 | 0.00 | 55 | 1012.3 |
| 20260510163706 | 23 | 243 | 4.8 | 11.3 | 0.00 | 0.08 | 0.00 | 56 | 1012.3 |
| 20260510162206 | 23 | 0 | 0.0 | 9.7 | 0.00 | 0.08 | 0.00 | 60 | 1012.4 |
| 20260510160705 | 22 | 256 | 3.2 | 9.7 | 0.00 | 0.08 | 0.00 | 60 | 1012.5 |
| 20260510155206 | 22 | 287 | 1.6 | 11.3 | 0.00 | 0.10 | 0.00 | 64 | 1012.4 |
| 20260510153706 | 22 | 0 | 0.0 | 6.4 | 0.00 | 0.10 | 0.00 | 65 | 1012.5 |
| 20260510152205 | 21 | 270 | 3.2 | 11.3 | 0.00 | 0.10 | 0.00 | 64 | 1012.5 |
| 20260510150706 | 21 | 277 | 3.2 | 16.1 | 0.00 | 0.10 | 0.00 | 65 | 1012.5 |
| 20260510145206 | 20 | 285 | 4.8 | 11.3 | 0.00 | 0.10 | 0.00 | 66 | 1012.4 |
| 20260510143705 | 20 | 215 | 1.6 | 14.5 | 0.00 | 0.10 | 0.00 | 67 | 1012.6 |
| 20260510142206 | 19 | 188 | 6.4 | 14.5 | 0.00 | 0.10 | 0.00 | 73 | 1012.7 |
| 20260510140706 | 18 | 0 | 0.0 | 6.4 | 0.00 | 0.10 | 0.00 | 76 | 1012.7 |
| 20260510135205 | 17 | 0 | 0.0 | 1.6 | 0.00 | 0.10 | 0.00 | 80 | 1012.7 |
| 20260510133705 | 16 | 0 | 0.0 | 6.4 | 0.00 | 0.10 | 0.00 | 85 | 1012.7 |
| 20260510132206 | 15 | 0 | 0.0 | 0.0 | 0.00 | 0.10 | 0.00 | 89 | 1012.7 |
| 20260510130706 | 13 | 0 | 0.0 | 0.0 | 0.00 | 0.10 | 0.00 | 90 | 1012.9 |
| 20260510125205 | 12 | 0 | 0.0 | 0.0 | 0.00 | 0.10 | 0.00 | 90 | 1013.0 |
| 20260510123706 | 12 | 0 | 0.0 | 0.0 | 0.00 | 0.10 | 0.00 | 90 | 1012.9 |
| 20260510122206 | 12 | 0 | 0.0 | 0.0 | 0.00 | 0.10 | 0.00 | 90 | 1012.7 |
| 20260510120705 | 11 | 0 | 0.0 | 0.0 | 0.00 | 0.10 | 0.00 | 89 | 1012.4 |
| 20260510115205 | 12 | 0 | 0.0 | 0.0 | 0.00 | 0.10 | 0.00 | 90 | 1012.2 |
| 20260510113706 | 11 | 0 | 0.0 | 0.0 | 0.00 | 0.10 | 0.00 | 90 | 1012.0 |
| 20260510112206 | 11 | 0 | 0.0 | 0.0 | 0.00 | 0.10 | 0.00 | 90 | 1011.8 |
| 20260510110705 | 10 | 0 | 0.0 | 0.0 | 0.00 | 0.10 | 0.00 | 89 | 1011.9 |
| 20260510105205 | 10 | 0 | 0.0 | 0.0 | 0.00 | 0.10 | 0.00 | 89 | 1011.8 |
| 20260510103706 | 10 | 0 | 0.0 | 0.0 | 0.00 | 0.10 | 0.00 | 89 | 1011.5 |
| 20260510102205 | 10 | 0 | 0.0 | 0.0 | 0.00 | 0.10 | 0.00 | 89 | 1011.4 |
| 20260510100705 | 10 | 0 | 0.0 | 0.0 | 0.00 | 0.10 | 0.00 | 89 | 1011.2 |
| 20260510095206 | 10 | 0 | 0.0 | 0.0 | 0.00 | 0.10 | 0.00 | 89 | 1011.2 |
| 20260510093706 | 10 | 0 | 0.0 | 0.0 | 0.00 | 0.10 | 0.00 | 89 | 1011.2 |
| 20260510092205 | 9 | 0 | 0.0 | 0.0 | 0.00 | 0.10 | 0.00 | 89 | 1010.9 |
| 20260510090705 | 9 | 0 | 0.0 | 0.0 | 0.00 | 0.10 | 0.00 | 89 | 1011.0 |
| 20260510085206 | 9 | 0 | 0.0 | 0.0 | 0.00 | 0.10 | 0.00 | 89 | 1011.1 |
| 20260510083705 | 8 | 0 | 0.0 | 14.5 | 0.00 | 0.10 | 0.00 | 89 | 1011.0 |
| 20260510082205 | 8 | 349 | 8.0 | 16.1 | 0.00 | 0.10 | 0.00 | 88 | 1011.1 |
| 20260510080706 | 8 | 0 | 0.0 | 0.0 | 0.00 | 0.10 | 0.00 | 88 | 1010.5 |
| 20260510075205 | 8 | 0 | 0.0 | 0.0 | 0.00 | 0.10 | 0.00 | 88 | 1010.5 |
| 20260510073705 | 8 | 0 | 0.0 | 0.0 | 0.00 | 0.10 | 0.00 | 88 | 1010.4 |
| 20260510072206 | 9 | 0 | 0.0 | 0.0 | 0.00 | 0.10 | 0.00 | 88 | 1010.2 |
| 20260510070705 | 9 | 0 | 0.0 | 0.0 | 0.00 | 0.10 | 0.00 | 88 | 1010.0 |
| 20260510065205 | 9 | 0 | 0.0 | 0.0 | 0.00 | 0.10 | 0.00 | 88 | 1010.0 |
| 20260510063706 | 8 | 0 | 0.0 | 0.0 | 0.00 | 0.10 | 0.00 | 87 | 1009.8 |
| 20260510062205 | 9 | 0 | 0.0 | 0.0 | 0.00 | 0.10 | 0.00 | 87 | 1010.0 |
| 20260510060705 | 9 | 0 | 0.0 | 0.0 | 0.00 | 0.10 | 0.00 | 88 | 1010.0 |
| 20260510055206 | 9 | 0 | 0.0 | 0.0 | 0.00 | 0.10 | 0.00 | 88 | 1010.0 |
| 20260510053705 | 9 | 0 | 0.0 | 0.0 | 0.00 | 0.10 | 0.00 | 88 | 1010.1 |
| 20260510052205 | 9 | 0 | 0.0 | 0.0 | 0.00 | 0.10 | 0.00 | 87 | 1010.3 |
| 20260510050705 | 9 | 0 | 0.0 | 0.0 | 0.00 | 0.10 | 0.00 | 87 | 1010.4 |
| 20260510045205 | 9 | 0 | 0.0 | 0.0 | 0.00 | 0.10 | 0.00 | 87 | 1010.4 |
| 20260510043705 | 9 | 0 | 0.0 | 0.0 | 0.00 | 0.10 | 0.00 | 87 | 1010.5 |
| 20260510042205 | 10 | 0 | 0.0 | 0.0 | 0.00 | 0.10 | 0.00 | 86 | 1010.5 |
| 20260510040705 | 10 | 0 | 0.0 | 0.0 | 0.00 | 0.10 | 0.00 | 86 | 1010.6 |
| 20260510035205 | 10 | 0 | 0.0 | 0.0 | 0.00 | 0.10 | 0.10 | 86 | 1010.6 |
| 20260510033705 | 10 | 0 | 0.0 | 0.0 | 0.00 | 0.10 | 0.10 | 87 | 1010.5 |
| 20260510032205 | 10 | 0 | 0.0 | 0.0 | 0.00 | 0.10 | 0.10 | 86 | 1010.4 |
| 20260510030705 | 11 | 0 | 0.0 | 0.0 | 0.00 | 0.10 | 0.10 | 86 | 1010.2 |
| 20260510025205 | 11 | 0 | 0.0 | 0.0 | 0.00 | 0.10 | 0.10 | 86 | 1010.0 |
| 20260510023705 | 11 | 0 | 0.0 | 0.0 | 0.00 | 0.10 | 0.10 | 86 | 1010.0 |
| 20260510022205 | 11 | 0 | 0.0 | 0.0 | 0.00 | 0.10 | 0.10 | 85 | 1010.1 |
| 20260510020705 | 11 | 0 | 0.0 | 0.0 | 0.00 | 0.10 | 0.10 | 85 | 1010.0 |
| 20260510015205 | 11 | 0 | 0.0 | 0.0 | 0.00 | 0.10 | 0.10 | 84 | 1009.9 |
| 20260510013705 | 11 | 0 | 0.0 | 0.0 | 0.00 | 0.10 | 0.10 | 84 | 1009.8 |
| 20260510012205 | 11 | 0 | 0.0 | 0.0 | 0.00 | 0.10 | 0.10 | 84 | 1009.8 |
| 20260510010705 | 12 | 0 | 0.0 | 0.0 | 0.00 | 0.10 | 0.10 | 83 | 1009.5 |
| 20260510005205 | 12 | 0 | 0.0 | 0.0 | 0.00 | 0.10 | 0.10 | 83 | 1009.5 |
| 20260510003704 | 12 | 0 | 0.0 | 0.0 | 0.00 | 0.10 | 0.10 | 82 | 1009.5 |
| 20260510002205 | 12 | 0 | 0.0 | 0.0 | 0.00 | 0.10 | 0.10 | 81 | 1009.2 |
| 20260510000705 | 13 | 0 | 0.0 | 0.0 | 0.00 | 0.10 | 0.10 | 80 | 1009.4 |
| 20260509235205 | 14 | 0 | 0.0 | 0.0 | 0.00 | 0.10 | 0.10 | 77 | 1009.3 |
| 20260509233705 | 15 | 0 | 0.0 | 0.0 | 0.00 | 0.10 | 0.10 | 77 | 1009.4 |
| 20260509232205 | 15 | 0 | 0.0 | 0.0 | 0.00 | 0.10 | 0.10 | 77 | 1009.4 |
| 20260509230705 | 15 | 0 | 0.0 | 0.0 | 0.00 | 0.10 | 0.10 | 75 | 1009.3 |
| 20260509225205 | 16 | 0 | 0.0 | 0.0 | 0.00 | 0.10 | 0.10 | 76 | 1009.2 |
| 20260509223705 | 15 | 0 | 0.0 | 0.0 | 0.00 | 0.10 | 0.10 | 78 | 1009.3 |
| 20260509222205 | 14 | 0 | 0.0 | 6.4 | 0.00 | 0.10 | 0.10 | 82 | 1009.5 |
| 20260509220705 | 13 | 0 | 0.0 | 0.0 | 0.00 | 0.10 | 0.10 | 83 | 1009.5 |
| 20260509215205 | 13 | 0 | 0.0 | 0.0 | 0.00 | 0.10 | 0.10 | 83 | 1009.4 |
| 20260509213705 | 13 | 0 | 0.0 | 4.8 | 0.00 | 0.10 | 0.10 | 83 | 1009.6 |
| 20260509212205 | 13 | 0 | 0.0 | 4.8 | 0.00 | 0.10 | 0.10 | 83 | 1009.5 |
| 20260509210705 | 13 | 0 | 0.0 | 4.8 | 0.00 | 0.10 | 0.10 | 83 | 1009.5 |
| 20260509205205 | 14 | 0 | 0.0 | 0.0 | 0.00 | 0.10 | 0.10 | 82 | 1009.5 |
| 20260509203705 | 14 | 0 | 0.0 | 0.0 | 0.00 | 0.10 | 0.10 | 81 | 1009.5 |
| 20260509200705 | 14 | 0 | 0.0 | 8.0 | 0.03 | 0.10 | 0.10 | 83 | 1009.5 |
| 20260509195205 | 13 | 349 | 3.2 | 9.7 | 0.03 | 0.10 | 0.10 | 84 | 1009.5 |
| 20260509193705 | 13 | 0 | 0.0 | 8.0 | 0.03 | 0.10 | 0.10 | 85 | 1009.7 |
| 20260509192205 | 13 | 0 | 0.0 | 1.6 | 0.03 | 0.10 | 0.10 | 85 | 1010.0 |
| 20260509190704 | 13 | 0 | 0.0 | 9.7 | 0.03 | 0.08 | 0.08 | 84 | 1010.2 |
| 20260509185205 | 13 | 349 | 6.4 | 12.9 | 0.03 | 0.08 | 0.08 | 83 | 1010.5 |
| 20260509183705 | 13 | 0 | 0.0 | 11.3 | 0.05 | 0.08 | 0.08 | 83 | 1010.6 |
| 20260509182204 | 13 | 0 | 0.0 | 4.8 | 0.05 | 0.08 | 0.08 | 82 | 1010.6 |
| 20260509180705 | 13 | 349 | 3.2 | 6.4 | 0.03 | 0.05 | 0.05 | 79 | 1010.9 |